Flag for Norway Weather past 2 weeks in Gjøvik, Norway

Now
81 °F

Warm.


Feels Like: 81 °F
Forecast: 54 / 78 °F
Wind: 2 mph from Southwest

Location: Lillehammer-Saetherengen

Current Time: Jul 1, 2015 at 7:22:58 PM

Latest Report: Jul 1, 2015 at 6:00 PM


Visibility: N/A

Pressure: 30.11 "Hg

Humidity: 42%

Dew point: 56 °F

Location of GjøvikLocation

Historic Weather in Gjøvik — Graph

°F

Gjøvik temperature yesterday

Maximum temperature yesterday: 71 °F (at 6:00 PM)
Minimum temperature yesterday: 53 °F (at 4:00 AM)
Average temperature yesterday: 61 °F

Past Weeks' High & Low Weather Summary

 TemperatureHumidityPressure
High81 °F (Jul 1, 6:00 PM)95% (Jun 23, 4:00 AM)30.17 "Hg (Jun 23, 4:00 AM)
Low42 °F (Jun 17, 4:00 AM)21% (Jun 16, 7:00 PM)29.58 "Hg (Jun 18, 3:00 PM)
Average57 °F68%29.84 "Hg
* Reported Jun 16 6:00 PM — Jul 1 6:00 PM, Gjøvik, Weather by CustomWeather, © 2015

Note: Actual official high and low records may vary slightly from our data, if they occured in-between our weather recording intervals... More about our weather records

Advertising

Gjøvik weather history for previous 24 hours

 ConditionsComfort  
Time TempWeatherWind HumidityBarometerVisibility
6:00 PM
Wed, Jul 1
81 °FWarm.2 mph42%30.11 "HgN/A
5:00 PM78 °FWarm.1 mph49%30.11 "HgN/A
4:00 PM76 °FMild.1 mph51%30.12 "HgN/A
3:00 PM77 °FMild.1 mph52%30.12 "HgN/A
2:00 PM79 °FWarm.1 mph48%30.12 "HgN/A
1:00 PM74 °FMild.3 mph48%30.14 "HgN/A
12:00 PM70 °FMild.2 mph50%30.16 "HgN/A
11:00 AM68 °FMild.2 mph52%30.17 "HgN/A
10:00 AM68 °FMild.2 mph51%30.15 "HgN/A
9:00 AM65 °FMild.1 mph54%30.15 "HgN/A
8:00 AM64 °FMild.1 mph57%30.15 "HgN/A
7:00 AM64 °FMild.No wind58%30.15 "HgN/A
6:00 AM56 °FCool.1 mph77%30.17 "HgN/A
5:00 AM56 °FCool.No wind74%30.15 "HgN/A
4:00 AM58 °FCool.1 mph75%30.14 "HgN/A
3:00 AM58 °FCool.No wind73%30.15 "HgN/A
2:00 AM59 °FCool.1 mph66%30.14 "HgN/A
1:00 AM60 °FCool.1 mph61%30.13 "HgN/A
12:00 AM61 °FCool.1 mph61%30.11 "HgN/A
11:00 PM
Tue, Jun 30
62 °FRefreshingly cool.1 mph59%30.10 "HgN/A
10:00 PM65 °FMild.1 mph48%30.09 "HgN/A
9:00 PM66 °FMild.2 mph48%30.07 "HgN/A
8:00 PM66 °FMild.1 mph50%30.06 "HgN/A
Weather by CustomWeather, © 2015

See weather overviewHow to use our weather pages